| time (UTC) | temp F | wind direction | speed MPH | gust MPH | rain 1hr in | rain 24hr in | rain mn in | humidity % | barometer mb |
| 20260502192736 | 64 | 307 | 1.0 | 6.0 | 0.00 | 0.00 | 0.00 | 40 | 1016.7 |
| 20260502185736 | 65 | 284 | 2.0 | 6.0 | 0.00 | 0.00 | 0.00 | 37 | 1016.1 |
| 20260502182736 | 66 | 350 | 2.0 | 7.0 | 0.00 | 0.00 | 0.00 | 32 | 1016.0 |
| 20260502162735 | 72 | 43 | 1.0 | 5.0 | 0.00 | 0.00 | 0.00 | 25 | 1016.3 |
| 20260502122736 | 75 | 326 | 3.0 | 10.0 | 0.00 | 0.00 | 0.00 | 25 | 1019.2 |
| 20260502115737 | 74 | 344 | 4.0 | 7.0 | 0.00 | 0.00 | 0.00 | 29 | 1019.4 |
| 20260502112737 | 75 | 189 | 3.0 | 9.0 | 0.00 | 0.00 | 0.00 | 28 | 1019.8 |
| 20260502105736 | 74 | 29 | 3.0 | 11.0 | 0.00 | 0.00 | 0.00 | 30 | 1020.2 |
| 20260502102736 | 73 | 256 | 3.0 | 8.0 | 0.00 | 0.00 | 0.00 | 31 | 1020.6 |
| 20260502065736 | 59 | 179 | 0.0 | 4.0 | 0.00 | 0.00 | 0.00 | 50 | 1022.0 |
| 20260502062735 | 60 | 96 | 2.0 | 6.0 | 0.00 | 0.00 | 0.00 | 47 | 1022.1 |
| 20260502055736 | 62 | 334 | 1.0 | 3.0 | 0.00 | 0.00 | 0.00 | 44 | 1022.1 |
| 20260502052735 | 56 | 19 | 2.0 | 3.0 | 0.00 | 0.00 | 0.00 | 52 | 1022.0 |
| 20260502045736 | 55 | 318 | 0.0 | 1.0 | 0.00 | 0.00 | 0.00 | 53 | 1021.9 |
| 20260502042735 | 55 | 278 | 0.0 | 2.0 | 0.00 | 0.00 | 0.00 | 53 | 1021.9 |
| 20260502035736 | 56 | 184 | 0.0 | 1.0 | 0.00 | 0.00 | 0.00 | 54 | 1021.9 |
| 20260502032735 | 56 | 104 | 0.0 | 3.0 | 0.00 | 0.00 | 0.00 | 54 | 1021.8 |
| 20260502025736 | 57 | 278 | 0.0 | 2.0 | 0.00 | 0.00 | 0.00 | 55 | 1021.9 |
| 20260502022735 | 57 | 299 | 0.0 | 3.0 | 0.00 | 0.00 | 0.00 | 56 | 1021.8 |
| 20260502015735 | 58 | 125 | 1.0 | 2.0 | 0.00 | 0.00 | 0.00 | 60 | 1021.9 |
| 20260502012736 | 59 | 200 | 0.0 | 4.0 | 0.00 | 0.00 | 0.00 | 62 | 1021.7 |
| 20260502005735 | 59 | 52 | 0.0 | 3.0 | 0.00 | 0.00 | 0.00 | 66 | 1021.7 |
| 20260502002736 | 59 | 29 | 0.0 | 3.0 | 0.00 | 0.00 | 0.00 | 64 | 1021.7 |
| 20260501235737 | 59 | 337 | 1.0 | 3.0 | 0.00 | 0.00 | 0.00 | 65 | 1021.9 |
| 20260501232736 | 60 | 329 | 2.0 | 3.0 | 0.00 | 0.00 | 0.00 | 65 | 1021.9 |
| 20260501225736 | 61 | 295 | 0.0 | 3.0 | 0.00 | 0.00 | 0.00 | 64 | 1022.0 |
| 20260501222736 | 62 | 9 | 0.0 | 3.0 | 0.00 | 0.00 | 0.00 | 62 | 1022.1 |
| 20260501215735 | 63 | 3 | 0.0 | 1.0 | 0.00 | 0.00 | 0.00 | 62 | 1022.0 |
| 20260501212735 | 63 | 305 | 0.0 | 2.0 | 0.00 | 0.00 | 0.00 | 63 | 1021.9 |
| 20260501205737 | 62 | 0 | 0.0 | 0.0 | 0.00 | 0.00 | 0.00 | 70 | 1021.8 |
| 20260501202735 | 64 | 0 | 0.0 | 0.0 | 0.00 | 0.00 | 0.00 | 67 | 1021.9 |
| 20260501195735 | 65 | 0 | 0.0 | 0.0 | 0.00 | 0.00 | 0.00 | 58 | 1021.6 |